STARLINK-11435, 62891

Orbit data source: Space-Track

STARLINK-11435, 62891 is a payload satellite owned by SpaceX/Seattle (US) in LEO that was launched on Tue, 04 Feb 2025 UTC via an FALCON 9 launch vehicle from the Air Force Eastern Test Range (AFETR). Payload-class satellites include a variety of spacecraft equipped with specific instruments for various scientific and technological missions. These include communications satellites like Starlink; space stations such as the ISS; scientific satellites like the Hubble; Earth observation satellites from companies like Planet Labs, Umbra, and HawkEye 360; GPS; miniature CubeSats for education and research; and military/defense satellites.

Loading next visibility...
Identifier
62891, 2025-024N
Orbit
LEO
Country
Flag of USUS
Related business
Manufacturer
SpaceX/Seattle
Mission
Operational Commercial Communications
Bus & Motor
STARLINK V2MD, Unknown motor
Mass
960 kg wet, ~910 kg dry
Launch date (UTC)
Icon of a cake. It is the launch day of the satellite!2025-02-04 (1 year ago)
Launch vehicle
FALCON 9
Launch site
Air Force Eastern Test Range (AFETR)
Object type
Payload
Rocket body
Debris
Shape & HBR
Box + 2 Pan, 18.1 m
Radar Cross Section
36.964 m², Large (>1 m²)

Expand to show TLE details & history
Last TLE update: 8 hours ago

TLE from 8 hours ago
0 STARLINK-11435
1 62891U 25024N   26035.44311931  .00267665  00000-0  20139-2 0  9990
2 62891  43.0008  22.2224 0002063 275.6127  84.4506 15.70947028 58236
Epoch: 2026-02-04T10:38Z
TLE epoch observation values (Epoch: 2026-02-04T10:38:05.508Z)
Latitude
0.00003°
Longitude
88.08985°
Altitude
355.826 km
Speed
7.698 km/s
True Right ascension
01h 28m 53s
True Declination
0° 00' 00"
Sunlit
Object was in daylight at epoch
Visualization orbit readout
Latitude
Unknown
Longitude
Unknown
Altitude
Unknown
Speed
Unknown
Apparent Right ascension
Unknown
Apparent Declination
Unknown
Sunlit
N/A
Visualization observer readout
Local Sidereal Time
20:16:07
Azimuth
Unknown
Elevation
Unknown
Doppler factor
Unknown
Orbital elements
Apogee altitude
359.56 km
Perigee altitude
356.781 km
Semi-major axis
6,736.308 km
Eccentricity
0.00021
Inclination
43.0008°
RAAN
22.2224°
Arg. of periapsis
275.6127°
True anomaly
84.47413°
Mean anomaly
84.4506°
Eccentric anomaly
84.46236°
Mean motion
3.92564 °/min
Orbital period
91.7 mins
BSTAR
0.0020139
Loading maneuver chart data...
Computing Atmospheric mass density...
Loading historical data...
Loading historical data...
Loading historical data...
Loading historical data...
Loading historical data...
Loading historical data...
Loading historical data...

Documentation

Showing up to 5 results
|